User: anonymous   Login
Location: Caltech
(34.1382°N, 118.1253°W)
Time: 04:27:09
(UTC-08:00)
Language:

GPS 2-04 Rocket1 - Orbit

View from above orbital plane
View from above orbital plane
View from above satellite
View from above satellite

Ground track
Ground track

The orbit data is extracted from the following two-line orbital elements,

1 20303U 89085B   16038.89507938  .00009371  00000-0  35867-3 0  9997
2 20303  35.6294 245.7390 0114850 123.2561 237.9229 15.19879734425041
Epoch (UTC): 07 February 2016 21:28:54
Eccentricity: 0.0114850
inclination: 35.6294°
perigee height: 427 km
apogee height: 585 km
right ascension of ascending node: 245.7390°
argument of perigee: 123.2561°
revolutions per day: 15.19879734
mean anomaly at epoch: 237.9229°
orbit number at epoch: 42504

The dashed part of the orbit path shows where the satellite is in the earth's shadow,  

DLR